BRITE-CA1 (TORONTO)

Last updated on Fri Jul 10 2026 00:03:38 GMT+0000 (Coordinated Universal Time)

1 40020U 14033L 26190.18755172 .00000733 00000+0 11766-3 0 9997 2 40020 97.9764 318.7133 0078005 205.5751 154.1590 14.72715027645456
UTC large
Height (km)
Speed (km/s)
/
Latitude / Longitude
Inclination (degrees)
Orbital Period (minutes)
Azimuth
Elevation
Range (km)
Doppler Factor

Next 0 passes for location: London (51.5072 / 0.1276)

No passes found over London.
BRITE-CA1 (TORONTO)